CHUBUSAT 2

Satellite information

Favourite Embed

Satellite Type and Status

PAYLOADIN ORBIT

Key statistics

Satellite CHUBUSAT 2 at a glance.

Uptime

3492

Days in orbit

Revolutions

≈ 15.2

Per day

Orbit

LEO

Low Earth Orbit

Inclination

31.0

Latest

Satellite identification and parameters

Extended collection of information and parameters for CHUBUSAT 2.

Object identification

Identified? True

Debris? False

Object name: CHUBUSAT 2

International designator: 2016-012B

Object number (NORAD): 41338

Object ID (CCSDS): 41338

Country: JAPAN (JPN)

Current information (Y/N): Y

RCS size: MEDIUM

Orbital parameters

Period: 94.946 minutes

Inclination: 30.9999 deg

SMA: 6894.084 km

Apoapsis: 522.927 km

Periapsis: 508.972 km

RAAN: 4.5218 deg

Eccentricy: 0.00101214

Argument of periapsis: 87.0016 deg

Mean anomaly: 273.1782 deg

Mean motion: 15.16658753 rev/day

Mean motion (dot): 0.00006606 rev/day2

B* drag term: 0.00032350009 1/REarth

Two-line elements (TLE)

Creation date: Sept. 8, 2025, 6:18 p.m.

Reference frame: TEME

Reference center: EARTH

Epoch: Sept. 8, 2025, 12:12 p.m. UTC

TLE line 0: 0 CHUBUSAT 2

TLE line 1: 1 41338U 16012B 25251.50849286 .00006606 00000-0 32350-3 0 9990

TLE line 2: 2 41338 30.9999 4.5218 0010121 87.0016 273.1782 15.16658753525556

Live tracking on map

Real-time ground track for satellite CHUBUSAT 2.

In-orbit conjunctions

There are no conjunctions computed for CHUBUSAT 2, at the moment. Check back to stay up to date, as we update our databases every day.

Go to all conjunctions

Associated space launch

Astro-H is the 6th satellite in a series of X-ray telescopes by JAXA and ISAS. Its 4 instruments on board will cover the X-ray and Gamma ray regions. This region consists of photons with energy ranging from 0.3-600keV, and the telescope will provide the highest resolution ever achieved of 3-10 keV bands. The craft weighs 2.7 tonnes and will be placed into a circular orbit 575km above the ground, with an inclination of 31 degrees.

CHUBUSAT 2 was lifted into orbit during the mission ‘H-IIA 202 | Astro-H (Hitomi)’, on board a H-IIA space rocket.

The launch took place on Feb. 17, 2016, 8:45 a.m. from Yoshinobu Launch Complex LP-1.

For more information about the launch, click the button.

Launch to space H-IIA 202 | Astro-H (Hitomi)
H-IIA 202 | Astro-H (Hitomi)

Agency: N/A

Status: Launch Successful

Launch date: Feb. 17, 2016, 8:45 a.m. UTC

Rocket: H-IIA

Launch pad: Yoshinobu Launch Complex LP-1

Location: Tanegashima Space Center, Japan

...

Latest news about this satellite

There are no fresh news available about this satellite. Check back as we update our databases every day.


Newsletter sign-up

Weekly statistics, charts and insights to help you stay on top of the space industry.